Simultaneous Nadir Overpasses (SNOs) Predictions

Prediction of SNOs between AQUA and METOP-C Satellite Orbit:

Table of predicted SNOs for the next 14.0 days since TLE Epoch: 9/14/2024
Index Date (AQUA) Time (AQUA) Lat,Lon (AQUA) SZA (AQUA ) Date (METOP-C) Time (METOP-C) Lat,Lon (METOP-C) SZA (METOP-C ) Distance(km) Time Diff (sec)
1 09/14/2024 21:46:43 75.65,-147.10 72.62 09/14/2024 21:45:58 75.68,-147.08 72.65 3.31 45
2 09/14/2024 22:36:04 -75.71, 20.39 107.31 09/14/2024 22:36:38 -75.73, 20.41 107.29 2.17 34
3 09/17/2024 12:17:09 75.67, -4.70 73.64 09/17/2024 12:16:18 75.66, -4.73 73.63 1.27 51
4 09/17/2024 13:06:30 -75.72, 162.79 106.29 09/17/2024 13:06:58 -75.71, 162.76 106.31 1.94 28
5 09/20/2024 02:47:30 75.68, 137.71 74.67 09/20/2024 02:46:36 75.70, 137.83 74.68 3.48 54
6 09/20/2024 03:36:51 -75.74, -54.79 105.27 09/20/2024 03:37:16 -75.75, -54.67 105.25 3.48 25
7 09/22/2024 17:17:46 75.70, -79.86 75.70 09/22/2024 17:16:54 75.71, -79.71 75.71 4.08 52
8 09/22/2024 18:07:06 -75.71, 87.79 104.28 09/22/2024 18:07:35 -75.72, 87.65 104.27 3.84 29
9 09/25/2024 07:47:56 75.67, 62.73 76.69 09/25/2024 07:47:12 75.69, 62.66 76.70 2.45 44
10 09/25/2024 08:37:17 -75.73,-129.77 103.25 09/25/2024 08:37:52 -75.75,-129.82 103.22 2.44 35
11 09/27/2024 22:18:01 75.70,-154.81 77.73 09/27/2024 22:17:28 75.69,-154.92 77.72 3.21 33



Historial Predications of SNOs between AQUA and METOP-C
